Regional Weather Roundup
Issued by NWS Jackson, KY

Home | Current Version | Previous Version | Graphics & Text | Print | Product List | Glossary On
Versions: 1 2 3 4 5 6 7 8 9 10 11 12 13 14 15 16 17 18 19 20 21 22 23 24 25 26 27 28 29 30 31 32 33 34 35 36 37 38 39 40 41 42 43 44 45 46 47 48 49 50
000
ASUS43 KJKL 050810
RWRJKL

EAST KENTUCKY HOURLY WEATHER ROUNDUP
NATIONAL WEATHER SERVICE JACKSON KY
400 AM EDT SUN JUL 05 2015

NOTE: "FAIR" INDICATES FEW OR NO CLOUDS BELOW 12,000 FEET WITH
NO SIGNIFICANT WEATHER AND/OR OBSTRUCTIONS TO VISIBILITY.

* THESE REPORTS ARE NOT UNDER NWS QUALITY CONTROL AND MAY NOT
  REPORT WEATHER SUCH AS PRECIPITATION AND FOG.

KYZ079-080-083-085-087-088-110-112-115-119-120-050900
...EASTERN KENTUCKY...

CITY           SKY/WX    TMP DP  RH WIND       PRES   REMARKS
JACKSON        CLOUDY    69  67  93 CALM      30.05F
LONDON         HVY RAIN  69  64  84 S12       30.06R
SOMERSET*      RAIN      66  66 100 CALM      30.05F
MONTICELLO*    CLOUDY    69  69 100 CALM      30.06F FOG
MIDDLESBORO*   LGT RAIN  67  67  99 CALM      30.07F
HARLAN APT*      N/A     68  68 100 SE3       30.08S
HAZARD APT*    MOSUNNY   68  68 100 CALM      30.06F FOG
BLACK MTN*       N/A     63  63 100 SW5         N/A
PIKEVILLE APT* PTCLDY    68  66  94 CALM      30.07F
BIG SANDY*     FOG       66  66 100 CALM      30.06F VSB 1/2
MOREHEAD APT*  CLOUDY    68  59  73 E5        30.07F
$$

KYZ035-036-041-042-044-050-067-078-099-050900
...CENTRAL KENTUCKY...

CITY           SKY/WX    TMP DP  RH WIND       PRES   REMARKS
MT STERLING*   CLOUDY    68  68 100 E3        30.07R FOG
FLEMING/MASON* CLEAR     64  63  94 E3        30.07S
DANVILLE*      CLOUDY    68  68 100 CALM      30.05S FOG
RICHMOND*      CLOUDY    70  66  88 CALM      30.04S
LEXINGTON      CLOUDY    70  66  87 E5        30.04S
FRANKFORT      CLOUDY    69  66  90 E5        30.03S FOG
$$

KYZ091>093-OHZ055-061-077-WVZ005-015-034-035-042-050900
...SOUTHERN OHIO/WEST VIRGINIA...

CITY           SKY/WX    TMP DP  RH WIND       PRES   REMARKS
COVINGTON      CLOUDY    68  60  75 E3        30.06S
COLUMBUS       MOCLDY    62  56  80 E5        30.07S
DAYTON         MOCLDY    63  60  90 CALM      30.08F
WILMINGTON     CLOUDY    61  57  87 CALM      30.07F
HUNTINGTON     FOG       64  64 100 NE3       30.05F VSB 1/4
CHARLESTON     FOG       66  65  96 NE3       30.07S VSB 1/2
PINEVILLE*     CLOUDY    66  66 100 MISG      30.15R FOG
BECKLEY        MOCLDY    62  60  93 SE3       30.13F FOG
BLUEFIELD      CLOUDY    66  62  87 CALM      30.15F FOG
$$

VAZ002-007-008-TNZ017-027-036-066-071-050900
...SOUTHWEST VIRGINIA/EAST TENNESSEE...

CITY           SKY/WX    TMP DP  RH WIND       PRES   REMARKS
WISE*          CLOUDY    64  64 100 CALM      30.14S
JONESVILLE*      N/A    N/A N/A N/A MISG        N/A
ABINGDON*      CLOUDY    69  69 100 CALM      30.12S FOG
BRISTOL        LGT RAIN  69  68  96 CALM      30.10S FOG
KNOXVILLE      LGT RAIN  69  67  93 NE5       30.04F
OAK RIDGE      HVY RAIN  69  68  96 CALM      30.06F FOG
CROSSVILLE     RAIN      68  65  90 CALM      30.06F FOG
NASHVILLE      CLOUDY    69  69 100 W3        30.03R
$$

...KEY TO REMARKS...
VSB - VISIBILITY IN MILES
WCI - WIND CHILL INDEX
HX  - HEAT INDEX

$$


USA.gov is the U.S. government's official web portal to all federal, state and local government web resources and services.